FW6349 Weather Reports


time (UTC)temp
C
wind
direction
speed
KPH
gust
KPH
rain 1hr
cm
rain 24hr
cm
rain mn
cm
humidity
%
barometer
mb
20260504081821 14 189 6.4 11.3 0.00 0.00 0.00 45 995.0
20260504080837 14 206 8.0 9.7 0.00 0.00 0.00 45 995.2
20260504045821 13 198 3.2 6.4 0.00 0.00 0.00 47 999.1
20260504044830 13 187 3.2 3.2 0.00 0.00 0.00 46 999.1
20260504043821 13 181 3.2 4.8 0.00 0.00 0.00 46 999.4
20260504042837 13 199 3.2 4.8 0.00 0.00 0.00 46 999.7
20260504041822 13 198 1.6 3.2 0.00 0.00 0.00 46 999.7
20260504040836 13 186 3.2 3.2 0.00 0.00 0.00 46 1000.2
20260504035821 13 199 1.6 3.2 0.00 0.00 0.00 47 1000.4
20260504034830 13 188 1.6 1.6 0.00 0.00 0.00 47 1000.5
20260504033822 13 193 1.6 1.6 0.00 0.00 0.00 47 1000.7
20260504032857 13 202 1.6 1.6 0.00 0.00 0.00 45 1000.9
20260504031821 14 186 1.6 1.6 0.00 0.00 0.00 43 1001.1
20260504030836 15 192 1.6 1.6 0.00 0.00 0.00 42 1001.4
20260504025821 15 203 1.6 3.2 0.00 0.00 0.00 41 1001.4
20260504024831 15 202 1.6 3.2 0.00 0.00 0.00 41 1001.4
20260504023822 15 202 1.6 1.6 0.00 0.00 0.00 41 1001.6
20260504022837 15 201 0.0 1.6 0.00 0.00 0.00 41 1001.6
20260504021841 16 203 0.0 1.6 0.00 0.00 0.00 40 1001.8
20260504020836 16 200 1.6 3.2 0.00 0.00 0.00 38 1001.7
20260504015821 16 194 1.6 1.6 0.00 0.00 0.00 38 1001.7
20260504014832 16 0.0 0.0 0.00 0.00 0.00 37 1001.6
20260504013822 17 203 0.0 1.6 0.00 0.00 0.00 35 1001.6
20260504012837 17 198 1.6 1.6 0.00 0.00 0.00 34 1001.7
20260504011822 18 207 1.6 1.6 0.00 0.00 0.00 33 1001.7
20260504010836 19 215 1.6 3.2 0.00 0.00 0.00 31 1001.7
20260504005821 20 220 3.2 3.2 0.00 0.00 0.00 30 1001.8
20260504004833 20 234 3.2 6.4 0.00 0.00 0.00 29 1001.8
20260504003822 20 230 6.4 9.7 0.00 0.00 0.00 29 1002.0
20260504002837 20 232 3.2 6.4 0.00 0.00 0.00 30 1002.0
20260504001821 20 224 1.6 3.2 0.00 0.00 0.00 31 1002.1
20260504000836 21 281 3.2 9.7 0.00 0.00 0.00 30 1002.2
20260503235822 20 236 4.8 6.4 0.00 0.00 0.00 31 1002.1
20260503234854 20 228 4.8 9.7 0.00 0.00 0.00 30 1002.2
20260503233821 20 275 6.4 9.7 0.00 0.00 0.00 30 1002.2
20260503232837 21 246 8.0 14.5 0.00 0.00 0.00 29 1002.2
20260503231836 21 283 9.7 16.1 0.00 0.00 0.00 27 1002.3
20260503230836 22 250 1.6 3.2 0.00 0.00 0.00 28 1002.4
20260503225822 21 283 6.4 6.4 0.00 0.00 0.00 28 1002.4
20260503224835 21 317 9.7 14.5 0.00 0.00 0.00 28 1002.6
20260503223842 21 309 4.8 6.4 0.00 0.00 0.00 29 1002.7
20260503222916 21 25 4.8 6.4 0.00 0.00 0.00 29 1002.7
20260503221821 21 302 6.4 11.3 0.00 0.00 0.00 28 1002.7
20260503220836 21 321 6.4 9.7 0.00 0.00 0.00 29 1002.6
20260503215822 21 261 4.8 6.4 0.00 0.00 0.00 27 1002.9
20260503214836 21 266 1.6 4.8 0.00 0.00 0.00 29 1002.9
20260503213822 21 288 8.0 12.9 0.00 0.00 0.00 28 1003.1
20260503212815 21 16 8.0 12.9 0.00 0.00 0.00 29 1003.3
20260503211822 20 258 4.8 9.7 0.00 0.00 0.00 29 1003.4
20260503210837 20 241 8.0 22.5 0.00 0.00 0.00 30 1003.4
20260503205822 20 327 4.8 9.7 0.00 0.00 0.00 29 1003.4
20260503204857 20 319 4.8 11.3 0.00 0.00 0.00 28 1003.5
20260503203822 20 174 8.0 12.9 0.00 0.00 0.00 31 1003.7
20260503202814 20 261 6.4 11.3 0.00 0.00 0.00 30 1003.6
20260503201836 20 22 6.4 11.3 0.00 0.00 0.00 29 1003.7
20260503200857 20 353 9.7 14.5 0.00 0.00 0.00 29 1003.9
20260503195822 20 338 8.0 16.1 0.00 0.00 0.00 30 1003.9
20260503194837 20 284 11.3 20.9 0.00 0.00 0.00 28 1004.1
20260503193903 20 284 8.0 16.1 0.00 0.00 0.00 30 1004.1
20260503192854 20 258 8.0 14.5 0.00 0.00 0.00 31 1004.0
20260503191823 20 305 11.3 16.1 0.00 0.00 0.00 31 1004.3
20260503190837 20 9 8.0 14.5 0.00 0.00 0.00 33 1004.3
20260503185822 19 302 14.5 24.1 0.00 0.00 0.00 34 1004.5
20260503184837 20 298 14.5 22.5 0.00 0.00 0.00 33 1004.5
20260503183822 19 346 8.0 16.1 0.00 0.00 0.00 35 1004.4
20260503182814 19 323 8.0 16.1 0.00 0.00 0.00 32 1004.6
20260503181822 20 14 14.5 27.4 0.00 0.00 0.00 29 1004.6
20260503180836 20 335 8.0 14.5 0.00 0.00 0.00 36 1004.8
20260503175822 19 11 11.3 17.7 0.00 0.00 0.00 37 1004.7
20260503174837 19 315 9.7 22.5 0.00 0.00 0.00 40 1004.7
20260503173823 19 9 11.3 22.5 0.00 0.00 0.00 37 1004.7
20260503172815 19 18 8.0 14.5 0.00 0.00 0.00 38 1004.8
20260503171836 19 355 8.0 16.1 0.00 0.00 0.00 40 1004.9
20260503170856 19 8 9.7 17.7 0.00 0.00 0.00 41 1004.8
20260503150836 16 288 6.4 16.1 0.00 0.00 0.00 49 1004.7
20260503130815 13 16 4.8 6.4 0.00 0.00 0.00 57 1003.8